Wind_Speed
15 15 15 14 14 13 13 13 13 13 12 11 11 10 8 8 9 9 8 7 7 7 7 7 7 6 6 6 5 5 5 4 3 3 3 3 3 4 4 4 4 4 3 3 3 3 3 2 2
14 15 14 14 15 14 15 14 13 13 12 12 11 10 8 8 9 9 8 8 8 8 7 7 6 6 5 5 5 4 4 4 4 4 4 4 3 3 3 3 3 3 3 2 3 2 2 2 2
15 16 15 15 15 15 15 14 14 13 13 12 11 10 9 10 9 8 8 8 8 8 7 7 6 6 5 5 4 4 4 4 4 4 4 4 4 3 3 3 3 3 2 2 2 2 2 1 1
15 16 16 16 15 16 15 15 15 14 13 13 12 11 10 10 9 7 7 7 8 7 7 6 6 6 5 5 5 4 4 4 4 4 3 4 4 4 4 4 3 3 1 1 1 2 2 2 1
15 15 16 16 16 16 15 16 15 14 13 13 13 11 10 10 10 9 8 7 8 7 7 6 6 6 6 6 5 5 5 4 4 4 3 4 4 4 4 3 3 3 2 1 1 1 1 1 1
16 15 15 15 16 15 15 15 15 14 14 14 13 12 11 11 11 10 9 9 8 8 8 7 7 7 6 6 5 5 5 4 4 4 4 4 3 3 3 3 3 3 2 2 1 1 1 2 1
15 15 15 15 16 15 15 16 15 14 14 14 13 12 12 12 12 12 11 10 9 9 8 8 7 7 7 6 5 5 5 5 5 4 4 4 3 3 3 2 3 2 2 2 1 0 1 1 2
15 14 14 15 15 15 15 15 14 14 13 13 14 12 11 11 12 12 11 10 9 8 8 8 7 7 7 6 6 6 6 6 5 5 4 4 4 4 3 3 2 1 2 2 2 1 1 1 1
14 14 14 14 14 14 14 14 14 14 13 14 14 13 12 11 12 12 12 11 10 9 8 8 7 7 6 6 6 6 7 6 5 5 4 4 4 3 3 3 2 2 2 1 2 1 1 1 1
13 14 14 15 15 14 14 14 15 14 14 13 13 13 12 12 12 12 12 11 10 10 9 8 8 8 7 7 7 7 7 6 5 5 5 4 3 3 3 3 3 2 2 1 1 1 2 1 2
13 14 14 15 14 14 15 16 15 14 13 13 13 13 12 12 13 12 11 11 10 10 9 9 9 8 8 8 7 7 7 7 7 6 5 4 4 4 3 3 3 2 2 1 1 1 2 2 2
14 14 13 14 14 14 15 16 15 15 14 13 13 13 13 13 12 11 11 11 10 10 10 10 10 9 9 8 7 7 7 7 7 6 5 5 4 4 3 3 3 3 2 2 2 2 3 3 3
12 12 13 14 14 13 15 16 15 14 14 14 13 13 13 13 13 12 11 10 9 9 10 10 10 10 10 9 8 7 7 8 7 6 6 6 5 5 4 3 2 2 2 2 2 4 4 4 3
10 10 11 12 13 13 14 15 15 14 15 14 14 13 13 13 13 12 11 10 9 9 9 10 9 9 9 9 9 8 8 8 8 7 6 5 5 5 5 4 3 3 3 3 4 5 5 5 5
9 10 13 12 12 13 13 15 14 14 14 13 13 13 13 13 13 12 12 11 10 9 8 9 9 9 9 9 8 8 7 7 7 7 6 5 5 5 5 5 4 4 4 4 5 5 5 6 7
8 8 10 11 12 12 12 14 14 13 13 12 12 12 12 12 12 12 12 11 10 9 8 9 9 9 9 9 8 8 7 8 7 7 7 6 5 6 5 6 5 5 5 5 5 5 6 6 7
6 7 7 9 10 10 10 12 12 12 13 12 12 12 12 12 12 11 11 10 10 9 9 8 9 9 9 8 8 8 8 8 8 7 7 6 6 7 7 6 6 6 5 5 5 6 6 7 8
7 7 6 6 8 9 9 10 10 11 12 11 11 11 11 11 11 11 10 10 10 9 8 8 9 9 9 8 8 8 8 9 9 8 8 8 7 6 6 6 6 6 6 6 6 6 7 8 8
6 5 4 5 6 7 8 8 10 10 11 10 10 10 11 11 11 10 10 10 9 9 9 8 9 9 9 8 8 8 8 8 9 9 9 9 8 7 7 6 7 7 7 7 7 7 7 8 8
3 2 3 4 5 6 7 9 9 9 10 9 10 10 11 11 10 10 9 9 9 9 9 9 9 9 9 8 8 7 8 9 9 10 10 9 9 8 8 8 9 8 8 8 7 7 8 8 9
2 0 2 4 4 5 5 6 8 8 8 8 9 9 10 10 10 10 9 9 9 8 8 8 8 8 8 8 8 8 8 9 10 10 10 10 9 8 8 8 8 9 9 8 8 8 9 9 10
2 2 2 1 2 2 5 6 7 8 7 8 8 8 8 8 9 8 8 8 8 8 7 7 7 7 7 8 8 8 9 9 10 10 10 9 9 9 9 8 8 9 9 9 9 10 10 10 10
3 3 4 3 3 3 5 7 8 9 6 7 8 7 7 8 8 8 8 8 7 7 7 7 7 6 7 7 8 8 9 9 10 10 10 9 9 9 8 9 8 9 9 9 10 10 10 11 11
6 5 5 5 5 4 5 7 7 7 7 6 6 6 7 8 8 7 7 7 7 7 7 7 7 6 7 7 8 8 9 9 9 9 10 10 10 9 8 9 9 9 10 10 11 12 12 12 12
8 7 8 7 6 5 6 7 6 6 6 6 6 5 6 7 8 8 7 7 7 8 8 7 7 7 7 7 8 9 9 9 9 10 10 10 10 10 9 9 10 11 11 11 12 13 13 14 14
10 10 10 8 7 7 8 9 7 5 5 5 6 6 6 6 7 7 8 8 8 8 8 8 9 8 8 8 8 8 9 10 10 10 10 10 10 11 11 11 11 12 12 12 13 13 14 14 15
11 11 12 12 10 10 10 11 11 8 6 7 7 7 7 7 8 8 8 9 9 9 9 10 11 11 10 9 9 9 9 10 11 11 12 12 11 12 12 12 13 13 14 14 14 15 16 16 16
14 13 13 13 13 13 13 13 11 9 8 9 9 9 9 10 10 10 10 10 10 10 10 11 12 12 12 10 9 10 10 12 12 12 13 13 13 13 13 14 15 15 15 16 16 17 17 18 18
16 14 14 16 17 15 15 14 11 11 11 11 11 11 11 12 12 12 12 12 12 12 12 12 13 13 13 12 12 12 13 13 14 14 14 15 15 15 15 16 16 17 17 17 18 19 19 20 20
19 17 16 18 18 17 17 16 15 14 12 12 12 12 12 13 13 13 13 13 13 13 13 13 14 15 15 14 13 14 15 15 15 16 16 16 15 16 16 17 17 18 19 19 20 21 21 21 21
Wind_Direction
88 83 74 75 71 67 64 62 58 59 56 53 50 46 45 44 44 47 47 52 52 58 64 71 79 84 85 84 88 99 101 108 120 119 115 111 115 116 113 118 136 145 146 143 134 129 131 138 136
83 78 72 71 66 63 61 57 54 57 55 50 47 44 43 43 45 51 51 53 54 57 64 74 81 82 83 87 89 95 95 101 104 102 115 119 118 119 107 94 127 140 146 148 149 139 145 145 139
76 72 73 71 64 60 58 57 53 52 51 49 47 42 42 42 48 54 51 53 56 60 68 76 80 80 80 81 88 94 97 103 101 96 95 97 100 102 103 92 112 134 156 172 172 164 153 146 159
76 75 71 65 60 59 57 56 54 51 49 49 48 42 42 45 48 51 50 53 56 61 69 78 80 78 77 79 84 92 94 98 99 96 90 91 98 99 90 83 84 74 106 169 187 179 183 178 195
78 76 66 59 58 57 55 56 54 52 51 48 45 40 42 46 47 49 52 54 56 62 68 76 82 80 79 80 83 90 93 95 98 94 92 95 99 104 99 88 75 63 65 127 135 144 156 163 175
75 69 55 56 60 58 55 54 52 51 50 47 46 43 45 47 51 57 60 60 62 69 75 79 83 78 75 78 79 82 91 93 94 93 85 89 98 105 96 86 69 66 63 84 120 134 178 138 115
71 68 60 59 61 58 56 53 49 47 49 46 49 48 48 48 50 54 60 62 66 71 75 80 81 75 74 76 76 80 85 85 83 83 83 80 88 86 80 80 69 63 65 72 86 108 183 87 61
70 64 62 59 56 53 54 53 50 47 47 45 49 48 47 50 51 53 55 59 63 69 74 81 86 80 75 70 74 76 72 70 67 67 71 70 65 58 57 59 53 48 47 56 69 74 109 72 33
69 66 61 60 54 50 50 51 48 47 46 45 45 44 46 50 53 55 57 59 62 68 72 79 82 79 74 65 67 70 66 66 64 64 66 63 54 44 39 38 24 15 5 29 48 61 26 36 19
67 65 60 59 54 49 48 48 48 47 49 47 45 45 47 50 50 52 54 58 64 65 67 77 79 77 74 73 69 65 63 64 66 63 61 54 40 30 22 20 14 357 348 344 7 1 1 358 350
69 63 59 58 54 50 47 46 45 46 50 48 48 48 49 50 51 52 51 54 62 62 67 74 76 75 72 71 69 62 59 58 56 52 47 36 26 18 11 3 1 358 358 337 338 335 324 321 321
70 61 55 57 55 52 49 47 46 47 49 50 50 50 49 48 49 51 52 54 59 63 65 68 68 66 65 65 65 64 61 56 50 43 34 28 22 14 8 359 354 357 358 344 337 326 308 307 312
64 61 59 57 54 52 52 48 47 47 47 47 50 48 46 47 48 47 49 55 59 61 63 65 62 60 61 62 64 65 61 55 48 39 31 25 20 17 9 358 349 347 348 346 341 329 320 320 321
67 60 53 51 49 49 53 50 48 47 45 45 45 46 46 47 49 50 52 56 62 65 65 63 60 56 56 57 60 63 58 51 44 34 29 25 15 6 358 354 339 330 325 321 321 319 318 322 322
72 57 51 47 46 44 51 50 47 45 44 42 44 45 45 47 48 50 54 57 63 66 64 60 57 54 52 53 54 55 50 43 37 31 29 25 22 12 2 352 339 329 323 315 317 317 319 317 315
72 59 43 42 41 41 44 45 48 43 44 43 43 41 42 46 46 47 49 54 60 62 60 57 51 47 46 48 47 43 41 37 32 27 25 23 18 11 11 3 350 338 330 322 322 324 323 322 317
82 65 45 41 36 33 33 35 42 40 41 40 38 35 35 38 41 45 47 49 52 54 53 48 43 40 42 45 42 40 38 33 31 28 25 18 13 16 12 1 355 355 348 341 337 332 328 326 324
87 78 54 37 32 24 27 27 29 38 38 35 36 36 31 32 36 39 44 47 48 49 45 42 39 38 40 41 40 39 34 28 23 19 17 13 8 8 6 3 359 2 3 355 344 335 331 329 328
95 77 47 35 21 11 18 22 25 31 32 30 33 37 33 30 34 40 43 42 42 44 42 37 34 32 33 36 35 30 25 20 15 10 8 5 2 358 359 2 5 5 1 352 345 338 334 334 332
103 54 30 7 353 348 3 12 17 23 25 24 29 35 34 29 31 38 38 41 40 41 40 34 29 26 24 27 27 24 19 15 10 4 2 0 357 359 4 7 7 3 354 347 339 334 331 329 329
165 301 351 345 351 353 349 359 4 3 8 12 21 28 33 29 26 29 38 35 33 36 35 28 21 20 21 20 22 20 14 9 5 2 360 0 5 5 2 2 4 1 355 349 343 337 332 330 328
194 209 219 275 323 333 331 331 352 356 8 10 9 13 24 25 24 27 25 26 27 29 27 21 18 22 20 17 13 11 8 2 359 358 359 2 4 1 359 358 356 352 348 342 339 335 330 327 328
195 208 222 248 271 283 321 328 347 355 358 3 1 4 9 9 12 17 18 18 16 15 14 13 12 13 11 11 6 359 354 354 356 359 2 0 357 354 354 353 350 345 341 338 336 335 330 325 326
204 222 233 241 251 279 307 316 326 338 337 340 341 353 357 358 358 3 4 3 2 359 357 2 359 4 3 2 357 353 351 352 357 357 354 351 350 348 345 345 345 342 337 333 333 332 331 326 325
219 232 243 242 245 273 290 299 310 318 321 322 321 338 348 353 355 351 346 345 347 345 345 346 344 345 347 346 346 345 345 348 349 348 345 346 346 346 343 338 337 336 334 331 330 329 329 327 323
232 240 251 260 258 262 274 280 286 290 306 317 313 316 335 337 339 337 332 332 331 331 334 336 332 334 333 334 337 340 343 342 339 337 337 338 339 339 336 334 330 329 328 327 325 324 324 324 322
231 239 253 262 260 262 269 271 273 268 295 318 315 306 317 321 322 320 319 322 322 322 322 325 327 329 328 324 327 333 331 331 329 330 330 330 330 329 326 324 322 320 320 319 319 319 318 319 317
237 247 250 252 259 262 267 277 276 277 290 303 311 307 308 311 309 307 307 310 314 315 315 314 317 318 317 315 317 319 320 319 321 322 322 322 320 319 319 318 316 315 315 314 313 314 315 316 315
238 244 251 251 255 264 270 270 269 276 285 293 300 298 299 300 300 299 301 303 305 309 311 311 311 313 313 312 313 314 315 315 316 313 312 311 313 315 314 312 311 311 312 312 311 312 311 311 310
239 244 250 254 252 258 267 270 266 267 274 282 289 291 295 298 300 301 300 301 302 304 306 308 309 308 306 304 306 310 312 312 310 308 307 308 309 309 310 310 308 306 308 309 310 309 308 307 307
Height
5903 5903 5903 5904 5904 5903 5903 5903 5902 5902 5902 5900 5900 5899 5898 5898 5898 5898 5895 5893 5892 5891 5891 5891 5891 5891 5891 5891 5891 5891 5892 5892 5892 5892 5893 5893 5894 5894 5894 5895 5895 5895 5895 5895 5896 5896 5896 5896 5896
5906 5905 5906 5906 5905 5905 5905 5904 5904 5903 5903 5901 5901 5900 5899 5898 5897 5896 5894 5893 5893 5892 5892 5892 5892 5892 5892 5892 5893 5893 5893 5893 5893 5893 5894 5894 5894 5895 5895 5895 5895 5895 5895 5896 5896 5896 5896 5896 5896
5908 5908 5908 5908 5907 5907 5907 5906 5905 5905 5904 5903 5902 5901 5900 5899 5898 5896 5895 5894 5894 5893 5893 5893 5893 5893 5893 5893 5893 5894 5894 5893 5894 5894 5894 5895 5895 5895 5895 5896 5896 5895 5895 5896 5896 5896 5896 5896 5896
5911 5911 5911 5910 5908 5909 5908 5908 5907 5906 5905 5905 5903 5902 5901 5900 5898 5897 5896 5895 5894 5894 5894 5894 5894 5894 5894 5894 5894 5894 5894 5895 5895 5895 5895 5895 5895 5896 5896 5896 5896 5896 5895 5896 5896 5896 5896 5896 5895
5913 5913 5912 5911 5910 5910 5909 5909 5908 5908 5907 5906 5904 5903 5902 5901 5899 5898 5897 5896 5895 5895 5895 5895 5895 5895 5895 5895 5895 5895 5895 5895 5895 5895 5896 5896 5896 5896 5896 5896 5896 5896 5895 5895 5895 5895 5895 5895 5895
5915 5915 5914 5913 5912 5912 5911 5911 5910 5910 5908 5907 5906 5905 5903 5902 5900 5899 5898 5897 5897 5897 5896 5896 5896 5896 5896 5896 5896 5896 5896 5896 5896 5896 5896 5896 5897 5897 5897 5896 5896 5896 5895 5895 5895 5895 5895 5895 5895
5917 5916 5916 5915 5915 5914 5913 5912 5912 5910 5910 5909 5907 5906 5904 5903 5902 5900 5899 5899 5898 5898 5898 5898 5897 5897 5897 5897 5897 5896 5897 5897 5897 5897 5897 5897 5897 5897 5897 5896 5896 5896 5895 5895 5895 5895 5895 5895 5895
5918 5919 5918 5917 5917 5916 5915 5915 5914 5912 5911 5910 5909 5907 5906 5905 5903 5902 5901 5900 5900 5899 5899 5899 5899 5898 5898 5898 5898 5898 5898 5897 5897 5898 5898 5898 5897 5897 5897 5897 5896 5896 5896 5895 5895 5895 5895 5895 5895
5920 5922 5920 5919 5919 5918 5917 5916 5915 5914 5912 5911 5910 5909 5908 5906 5905 5904 5903 5902 5901 5900 5900 5900 5900 5899 5899 5899 5899 5899 5898 5898 5898 5898 5898 5898 5898 5898 5897 5897 5896 5896 5896 5895 5895 5895 5895 5895 5894
5922 5923 5922 5922 5921 5920 5919 5917 5916 5915 5914 5913 5911 5910 5909 5907 5906 5905 5904 5904 5902 5901 5901 5901 5901 5900 5900 5900 5900 5900 5899 5899 5899 5899 5898 5898 5898 5898 5897 5897 5896 5896 5895 5895 5895 5895 5894 5894 5893
5924 5924 5924 5923 5922 5922 5921 5919 5918 5917 5916 5915 5913 5912 5910 5909 5907 5906 5905 5904 5903 5903 5902 5901 5902 5902 5901 5901 5901 5901 5900 5899 5899 5899 5899 5898 5898 5897 5897 5896 5896 5895 5895 5894 5894 5894 5894 5893 5893
5927 5926 5926 5925 5924 5924 5923 5921 5920 5919 5918 5917 5915 5913 5912 5910 5909 5907 5906 5905 5905 5904 5904 5904 5903 5903 5902 5902 5902 5901 5901 5899 5899 5899 5899 5898 5898 5897 5897 5896 5895 5895 5894 5894 5894 5893 5893 5893 5892
5928 5928 5927 5927 5926 5925 5924 5923 5922 5920 5919 5918 5916 5915 5913 5912 5910 5908 5907 5906 5905 5905 5905 5905 5904 5904 5903 5903 5902 5902 5902 5901 5900 5900 5899 5898 5897 5897 5896 5895 5894 5894 5894 5893 5893 5893 5892 5891 5891
5930 5929 5929 5928 5927 5927 5925 5925 5924 5922 5921 5920 5918 5917 5915 5913 5911 5910 5908 5907 5906 5906 5906 5906 5906 5905 5904 5904 5903 5902 5902 5902 5900 5900 5899 5898 5897 5896 5895 5894 5894 5893 5893 5892 5892 5892 5891 5890 5889
5931 5931 5931 5929 5929 5928 5927 5926 5925 5923 5922 5921 5920 5918 5917 5915 5913 5911 5910 5908 5908 5908 5908 5907 5907 5906 5905 5904 5904 5903 5903 5902 5901 5900 5899 5897 5896 5895 5894 5893 5893 5892 5892 5891 5891 5890 5890 5889 5888
5932 5932 5931 5931 5930 5929 5930 5928 5927 5924 5923 5923 5921 5920 5918 5916 5914 5912 5911 5910 5909 5909 5908 5908 5908 5907 5906 5905 5904 5904 5903 5902 5901 5900 5898 5897 5896 5895 5894 5893 5892 5891 5891 5890 5889 5889 5888 5887 5886
5932 5932 5932 5932 5931 5930 5930 5928 5928 5926 5925 5924 5922 5921 5919 5918 5916 5914 5913 5911 5911 5910 5909 5909 5908 5907 5906 5905 5905 5904 5903 5902 5901 5900 5898 5897 5895 5894 5893 5892 5891 5890 5889 5888 5887 5887 5886 5885 5884
5932 5932 5932 5932 5932 5931 5930 5929 5928 5926 5926 5925 5924 5922 5920 5919 5917 5916 5914 5913 5912 5911 5911 5910 5909 5908 5907 5906 5905 5904 5903 5902 5901 5900 5898 5896 5895 5893 5892 5891 5890 5889 5888 5887 5886 5885 5884 5884 5883
5932 5932 5932 5932 5932 5932 5930 5929 5929 5927 5926 5925 5924 5923 5922 5920 5919 5917 5916 5914 5913 5913 5912 5911 5910 5909 5908 5907 5906 5905 5904 5902 5901 5900 5898 5896 5894 5893 5891 5890 5889 5888 5887 5886 5884 5884 5883 5882 5881
5933 5933 5933 5933 5932 5932 5931 5930 5929 5928 5927 5926 5925 5924 5922 5921 5919 5918 5917 5916 5914 5913 5913 5912 5911 5910 5909 5908 5907 5906 5904 5902 5901 5899 5897 5895 5893 5892 5890 5889 5887 5886 5885 5884 5883 5882 5881 5880 5879
5933 5933 5933 5933 5932 5932 5931 5930 5929 5927 5926 5926 5925 5924 5923 5922 5920 5919 5918 5917 5916 5914 5913 5913 5912 5911 5909 5908 5907 5906 5904 5902 5901 5899 5897 5895 5893 5891 5889 5887 5886 5885 5884 5883 5881 5880 5879 5878 5877
5932 5932 5932 5932 5932 5932 5932 5930 5929 5927 5926 5926 5925 5924 5923 5922 5921 5920 5919 5918 5916 5915 5914 5913 5912 5911 5910 5908 5907 5906 5904 5902 5901 5898 5896 5894 5892 5890 5888 5886 5885 5884 5883 5882 5880 5879 5877 5876 5874
5931 5931 5931 5931 5931 5931 5930 5929 5929 5926 5926 5925 5924 5923 5923 5922 5921 5920 5919 5918 5917 5916 5914 5913 5911 5911 5909 5908 5907 5905 5904 5902 5900 5897 5895 5893 5891 5889 5887 5886 5884 5883 5882 5880 5879 5877 5876 5874 5872
5929 5930 5930 5930 5930 5930 5929 5928 5927 5925 5925 5924 5923 5923 5922 5921 5920 5919 5919 5918 5917 5916 5914 5913 5911 5910 5909 5907 5906 5905 5903 5901 5899 5897 5894 5892 5890 5888 5886 5885 5883 5882 5880 5878 5877 5875 5873 5872 5870
5928 5929 5929 5929 5928 5928 5928 5926 5926 5924 5923 5922 5922 5922 5921 5920 5920 5919 5918 5917 5916 5915 5913 5912 5911 5909 5908 5906 5905 5903 5902 5900 5898 5896 5894 5891 5889 5887 5885 5884 5882 5880 5878 5877 5875 5873 5871 5869 5867
5926 5926 5927 5927 5926 5926 5925 5924 5924 5923 5921 5920 5920 5920 5919 5919 5918 5918 5917 5916 5915 5914 5913 5912 5910 5908 5906 5905 5903 5902 5900 5898 5897 5894 5893 5890 5888 5886 5884 5882 5880 5879 5877 5875 5872 5870 5868 5866 5864
5923 5923 5924 5924 5923 5923 5922 5921 5921 5920 5919 5918 5917 5918 5917 5917 5916 5916 5915 5915 5914 5913 5911 5910 5908 5907 5905 5904 5901 5899 5898 5897 5895 5893 5891 5889 5886 5884 5882 5880 5878 5876 5874 5872 5870 5868 5865 5863 5861
5920 5920 5921 5921 5920 5919 5919 5918 5918 5917 5916 5916 5915 5915 5914 5914 5914 5914 5913 5913 5912 5911 5910 5908 5907 5905 5903 5902 5900 5898 5896 5894 5892 5890 5888 5886 5884 5882 5880 5878 5876 5873 5871 5869 5867 5864 5862 5859 5857
5916 5917 5917 5916 5916 5916 5915 5917 5915 5915 5914 5914 5913 5913 5912 5911 5911 5911 5911 5910 5909 5908 5907 5906 5904 5902 5900 5898 5897 5895 5893 5891 5890 5888 5885 5883 5881 5879 5876 5874 5872 5870 5868 5865 5863 5860 5858 5855 5853
5912 5912 5913 5913 5913 5912 5912 5914 5911 5911 5911 5911 5910 5910 5909 5909 5908 5908 5908 5907 5906 5905 5904 5903 5901 5899 5897 5895 5893 5892 5890 5889 5887 5884 5882 5879 5877 5875 5872 5870 5868 5866 5863 5861 5858 5855 5853 5850 5847